STARLINK-34753 (64946 NORAD) Tracking and Keplerian Element Data

This shows tracking and keplerian element data for the satellite.

Feedback or suggestion? Click here.




ElementValue
Catalog64946
NameSTARLINK-34753
Epoch Orbit2339
Epoch Day354.16337058
Epoch Year2025
RAAN215.7586
Inclination97.602
Eccentricity0.0002723
Argument of Perigee78.1632
Mean Anonmoly281.99
Mean Motion15.04840118
Decay Rate-7.92E-06
L11 64946U 25158Q 25354.16337058 -.00000792 00000+0 -51788-4 0 9994
L22 64946 97.6020 215.7586 0002723 78.1632 281.9900 15.04840118 23398



Live tracking and technical data element details for STARLINK-34753 (NORAD 64946). STARLINK-34753 can be tracked NOW for your location showing map with azimuth and elevation plus other details from your city location.







IsCatalogInMostPopularTable: catalog: 64946, numindb: 5
Update: records affected: 1



GetName: 64946 STARLINK-34753

Hit Count: updated at: Sat, 07 Feb 2026 08:59:07 GMT